Date String (YYYY-MM-DD hh:mm:ss) UTC,Instrument flags,Ambient pressure (hPa),Sample flow (lpm),Bypass flow (lpm),Sample temperature (°C),Ambient temperature (°C),ASC tube jacket temperature (°C),LED temperature (°C),Box temperature (°C),Sample RH (%),Span deviation,Mass concentration (μg/m³),Mass concentration (μg/m³),Mass concentration (μg/m³)
DateTimeUTC,F1_M11,P_M11,Q1_M11,Q2_M11,T1_M11,T2_M11,T3_M11,T4_M11,T5_M11,U1_M11,ZSPAN_M11,X0_M11,X2_M11,X1_M11
2022-06-20 02:00:00,,0821.8,5.00,0.00,29.1,27.9,00.0,37.9,31.1,30.1,0000.0,0004.93,0001.65,0001.33
2022-06-20 02:01:00,,0821.8,5.00,0.00,29.1,28.0,00.0,37.9,31.1,30.0,0000.0,0003.88,0001.62,0001.33
2022-06-20 02:02:00,,0821.8,5.00,0.00,29.2,28.1,00.0,37.9,31.2,30.0,0000.0,0003.59,0001.61,0001.32
2022-06-20 02:03:00,,0821.8,4.99,0.00,29.2,28.3,00.0,37.9,31.2,29.9,0000.0,0003.56,0001.59,0001.32
2022-06-20 02:04:00,,0821.7,4.99,0.00,29.2,28.4,00.0,38.0,31.3,29.8,0000.0,0003.63,0001.59,0001.30
2022-06-20 02:05:00,,0821.8,5.00,0.00,29.3,28.3,00.0,38.0,31.3,29.7,0000.0,0002.58,0001.59,0001.28
2022-06-20 02:06:00,,0821.7,5.02,0.00,29.2,27.6,00.0,37.9,31.1,29.6,0000.0,0002.73,0001.62,0001.27
2022-06-20 02:07:00,,0821.8,4.99,0.00,29.2,26.9,00.0,37.9,30.9,29.5,0000.0,0003.22,0001.65,0001.26
2022-06-20 02:08:00,,0821.8,5.00,0.00,29.1,26.7,00.0,37.8,30.8,29.4,0000.0,0003.51,0001.67,0001.26
2022-06-20 02:09:00,,0821.8,5.00,0.00,29.0,26.8,00.0,37.8,30.8,29.3,0000.0,0003.60,0001.66,0001.26
2022-06-20 02:10:00,,0821.8,5.00,0.00,29.0,26.9,00.0,37.8,30.8,29.3,0000.0,0003.62,0001.66,0001.24
2022-06-20 02:11:00,,0821.8,5.00,0.00,29.0,27.1,00.0,37.8,30.9,29.2,0000.0,0003.62,0001.65,0001.23
2022-06-20 02:12:00,,0821.8,5.01,0.00,29.0,27.3,00.0,37.8,30.9,29.0,0000.0,0003.79,0001.70,0001.24
2022-06-20 02:13:00,,0821.8,4.99,0.00,29.0,27.5,00.0,37.8,31.0,28.8,0000.0,0003.88,0001.72,0001.23
2022-06-20 02:14:00,,0821.8,5.01,0.00,29.0,27.7,00.0,37.9,31.0,28.5,0000.0,0003.85,0001.73,0001.23
2022-06-20 02:15:00,,0821.8,5.01,0.00,29.1,27.9,00.0,37.9,31.1,28.3,0000.0,0003.53,0001.73,0001.23
2022-06-20 02:16:00,,0821.8,5.00,0.00,29.1,28.0,00.0,37.9,31.1,28.2,0000.0,0003.50,0001.73,0001.24
2022-06-20 02:17:00,,0821.8,5.00,0.00,29.1,28.1,00.0,37.9,31.2,28.1,0000.0,0003.44,0001.72,0001.24
2022-06-20 02:18:00,,0821.8,4.99,0.00,29.2,28.3,00.0,37.9,31.2,28.1,0000.0,0003.27,0001.72,0001.23
2022-06-20 02:19:00,,0821.8,5.00,0.00,29.2,28.4,00.0,37.9,31.3,27.9,0000.0,0003.01,0001.73,0001.24
2022-06-20 02:20:00,,0821.8,5.00,0.00,29.3,28.5,00.0,38.0,31.3,27.5,0000.0,0002.91,0001.73,0001.23
2022-06-20 02:21:00,,0821.8,5.00,0.00,29.3,28.4,00.0,38.0,31.3,27.4,0000.0,0003.01,0001.76,0001.24
2022-06-20 02:22:00,,0821.8,5.00,0.00,29.3,27.7,00.0,37.9,31.2,27.5,0000.0,0003.43,0001.77,0001.23
2022-06-20 02:23:00,,0821.8,4.99,0.00,29.2,27.4,00.0,37.9,31.1,27.7,0000.0,0003.39,0001.76,0001.23
2022-06-20 02:24:00,,0821.9,5.00,0.00,29.2,27.4,00.0,37.9,31.0,27.9,0000.0,0004.22,0001.74,0001.24
2022-06-20 02:25:00,,0821.8,5.01,0.00,29.2,27.4,00.0,37.9,31.0,28.1,0000.0,0004.59,0001.72,0001.24
2022-06-20 02:26:00,,0821.8,5.00,0.00,29.2,27.6,00.0,37.9,31.1,28.4,0000.0,0004.70,0001.74,0001.23
2022-06-20 02:27:00,,0821.8,4.99,0.00,29.2,27.7,00.0,37.9,31.1,28.5,0000.0,0004.85,0001.78,0001.22
2022-06-20 02:28:00,,0821.8,5.00,0.00,29.2,27.9,00.0,38.0,31.1,28.6,0000.0,0004.98,0001.81,0001.22
2022-06-20 02:29:00,,0821.8,5.01,0.00,29.2,28.0,00.0,38.0,31.2,28.8,0000.0,0004.88,0001.79,0001.22
2022-06-20 02:30:00,,0821.8,5.00,0.00,29.2,28.1,00.0,38.0,31.2,29.0,0000.0,0005.65,0001.81,0001.21
2022-06-20 02:31:00,,0821.8,4.99,0.00,29.3,28.3,00.0,38.0,31.3,29.2,0000.0,0006.04,0001.85,0001.23
2022-06-20 02:32:00,,0822.0,5.00,0.00,29.3,28.4,00.0,38.0,31.3,29.3,0000.0,0006.24,0001.87,0001.25
2022-06-20 02:33:00,,0822.1,5.01,0.00,29.3,28.4,00.0,38.0,31.3,29.6,0000.0,0007.04,0001.94,0001.29
2022-06-20 02:34:00,,0822.1,5.00,0.00,29.3,27.8,00.0,38.0,31.2,29.7,0000.0,0007.77,0002.02,0001.32
2022-06-20 02:35:00,,0821.8,5.02,0.00,29.2,27.0,00.0,37.9,31.0,30.0,0000.0,0007.53,0002.13,0001.35
2022-06-20 02:36:00,,0821.9,4.99,0.00,29.2,26.7,00.0,37.9,30.9,30.3,0000.0,0007.32,0002.22,0001.39
2022-06-20 02:37:00,,0822.0,5.00,0.00,29.1,26.7,00.0,37.9,30.8,30.6,0000.0,0007.46,0002.25,0001.43
2022-06-20 02:38:00,,0822.1,5.01,0.00,29.1,26.9,00.0,37.9,30.8,30.7,0000.0,0008.07,0002.30,0001.46
2022-06-20 02:39:00,,0821.9,5.00,0.00,29.0,27.1,00.0,37.9,30.9,30.8,0000.0,0008.11,0002.34,0001.50
2022-06-20 02:40:00,,0822.1,5.00,0.00,29.0,27.3,00.0,37.9,30.9,30.8,0000.0,0008.27,0002.43,0001.55
2022-06-20 02:41:00,,0822.1,4.99,0.00,29.1,27.5,00.0,37.9,31.0,30.8,0000.0,0007.86,0002.41,0001.59
2022-06-20 02:42:00,,0822.1,5.00,0.00,29.1,27.6,00.0,37.9,31.0,30.8,0000.0,0007.68,0002.43,0001.64
2022-06-20 02:43:00,,0821.8,5.00,0.00,29.1,27.8,00.0,37.9,31.0,30.8,0000.0,0007.68,0002.49,0001.67
2022-06-20 02:44:00,,0822.0,5.00,0.00,29.1,28.0,00.0,37.9,31.1,30.7,0000.0,0007.12,0002.48,0001.69
2022-06-20 02:45:00,,0821.8,5.01,0.00,29.1,28.1,00.0,37.9,31.2,30.7,0000.0,0005.87,0002.46,0001.70
2022-06-20 02:46:00,,0821.8,4.99,0.00,29.2,28.2,00.0,37.9,31.2,30.7,0000.0,0005.79,0002.45,0001.72
2022-06-20 02:47:00,,0821.8,5.00,0.00,29.2,28.3,00.0,38.0,31.2,30.5,0000.0,0005.66,0002.39,0001.73
2022-06-20 02:48:00,,0821.8,5.00,0.00,29.3,28.4,00.0,38.0,31.3,30.3,0000.0,0005.48,0002.39,0001.73
2022-06-20 02:49:00,,0821.8,5.00,0.00,29.3,28.5,00.0,38.0,31.3,30.1,0000.0,0004.39,0002.39,0001.75
2022-06-20 02:50:00,,0821.8,4.99,0.00,29.3,28.2,00.0,38.0,31.3,29.9,0000.0,0004.28,0002.40,0001.77
2022-06-20 02:51:00,,0821.8,5.01,0.00,29.3,27.4,00.0,37.9,31.1,29.8,0000.0,0004.05,0002.38,0001.76
2022-06-20 02:52:00,,0821.8,5.00,0.00,29.2,26.8,00.0,37.9,30.9,29.8,0000.0,0004.10,0002.38,0001.75
2022-06-20 02:53:00,,0821.8,5.00,0.00,29.1,26.7,00.0,37.9,30.9,29.9,0000.0,0003.92,0002.34,0001.73
2022-06-20 02:54:00,,0822.0,4.99,0.00,29.1,26.8,00.0,37.9,30.8,30.0,0000.0,0003.66,0002.27,0001.71
2022-06-20 02:55:00,,0821.8,5.01,0.00,29.0,26.9,00.0,37.9,30.8,30.0,0000.0,0003.53,0002.21,0001.68
2022-06-20 02:56:00,,0821.8,5.00,0.00,29.0,27.1,00.0,37.9,30.9,29.9,0000.0,0003.59,0002.22,0001.66
2022-06-20 02:57:00,,0821.8,4.99,0.00,29.0,27.3,00.0,37.9,30.9,29.9,0000.0,0003.61,0002.20,0001.63
2022-06-20 02:58:00,,0821.8,5.00,0.00,29.0,27.5,00.0,37.9,31.0,29.8,0000.0,0003.52,0002.22,0001.61
2022-06-20 02:59:00,,0821.8,5.00,0.00,29.1,27.7,00.0,37.9,31.0,29.7,0000.0,0003.50,0002.24,0001.59
